Regional Weather Roundup
Issued by NWS San Angelo, TX

Home | Current Version | Previous Version | Text Only | Print | Product List | Glossary On
Versions: 1 2 3 4 5 6 7 8 9 10 11 12 13 14 15 16 17 18 19 20 21 22 23 24 25 26 27 28 29 30 31 32 33 34 35 36 37 38 39 40 41 42 43 44 45 46 47 48 49 50
000
ASUS44 KSJT 021911
RWRSJT
WEST CENTRAL TEXAS REGIONAL WEATHER ROUNDUP
NATIONAL WEATHER SERVICE SAN ANGELO TX
200 PM CDT WED SEP 02 2015

NOTE: "FAIR" INDICATES FEW OR NO CLOUDS BELOW 12,000 FEET WITH NO
SIGNIFICANT WEATHER AND/OR OBSTRUCTIONS TO VISIBILITY.

TXZ049-054-064>066-071>073-076>078-098-099-113-114-127-128-139-140-
154-155-168>170-022000
...LOCATIONS ACROSS WEST CENTRAL TEXAS...

CITY           SKY/WX    TMP DP  RH WIND       PRES   REMARKS
SAN ANGELO     SUNNY     92  61  35 SE12G18   30.02F
ABILENE        MOSUNNY   91  61  36 MISG      30.03F
DYESS AFB      SUNNY     92  64  38 SE10      30.02F
JUNCTION       SUNNY     89  62  40 VRB6      30.03F
SWEETWATER     SUNNY     91  53  27 SE7       30.08F
BROWNWOOD      SUNNY     90  61  37 S8        30.03F
COLEMAN        PTCLDY    90  63  40 NE3       30.04F
SONORA         MOSUNNY   88  63  42 S7        30.09F
OZONA          FAIR      88  59  37 S10       30.08F
BRADY          MOSUNNY   93  61  33 E6        30.04F
$$

TEXAS PANHANDLE/OKLAHOMA PANHANDLE

CITY           SKY/WX    TMP DP  RH WIND       PRES   REMARKS
AMARILLO       MOSUNNY   90  56  31 S20G26    30.07F
BORGER         MOSUNNY   92  57  30 S16G25    30.02F
CANADIAN       SUNNY     93  59  31 S17       29.98F
DALHART        MOSUNNY   91  54  28 S15       30.05F
DUMAS          PTCLDY    92  52  25 S16G22    30.04F
GUYMON         NOT AVBL
HEREFORD       PTCLDY    91  55  29 S16G23    30.08F
PAMPA          PTCLDY    92  56  28 S17G24    30.05F
PERRYTON       SUNNY     95  54  24 S21       29.99F
$$

SOUTHERN PANHANDLE/SOUTH PLAINS/ROLLING PLAINS

CITY           SKY/WX    TMP DP  RH WIND       PRES   REMARKS
LUBBOCK        PTSUNNY   90  55  30 S16       30.08F
SNYDER         SUNNY     90  59  34 SE9G16    30.06F
CHILDRESS      MOSUNNY   94  57  28 S9        30.00F
SEMINOLE       CLEAR     91  51  25 S14G22    30.09F
$$

PERMIAN BASIN

CITY           SKY/WX    TMP DP  RH WIND       PRES   REMARKS
MIDLAND        SUNNY     91  56  30 SE17G26   30.06F
ODESSA         SUNNY     91  53  27 S15       30.08F
WINK           SUNNY     92  54  27 SE12G23   30.04F
$$

FAR WEST/SOUTHWEST MOUNTAINS/TRANS PECOS

CITY           SKY/WX    TMP DP  RH WIND       PRES   REMARKS
ALPINE         PTCLDY    89  43  20 NE5       30.19F
DRYDEN           N/A     92  63  38 SE9G18    30.02F
EL PASO        MOSUNNY   94  47  20 VRB5      30.07F
FORT STOCKTON  SUNNY     90  56  31 S10       30.06F
GUADALUPE PASS MOSUNNY   86  50  28 E9G22     30.22F
MARFA          MOSUNNY   88  52  29 S9        30.17F
PECOS          CLEAR     93  55  28 E8G18     30.02F
$$

DALLAS/FORT WORTH METROPLEX

CITY           SKY/WX    TMP DP  RH WIND       PRES   REMARKS
DFW AIRPORT    MOSUNNY   91  64  40 CALM      30.02F
FTW MEACHAM    MOSUNNY   92  64  39 SE9       30.02F
DAL-EXECUTIVE  MOSUNNY   90  62  39 SE8G16    30.02F
GRAND PRAIRIE  SUNNY     90  66  45 S9        30.04F
ADDISON        MOSUNNY   90  63  40 SE7G15    30.03
MESQUITE       CLEAR     90  63  40 S6        30.03F
LANCASTER      CLEAR     91  62  37 SE7       30.03F
$$

NORTH CENTRAL TEXAS

CITY           SKY/WX    TMP DP  RH WIND       PRES   REMARKS
SHRMAN/DENISON CLEAR     92  64  38 S8        30.03F
GAINESVILLE    SUNNY     90  61  37 SE9G20    30.05S
BRIDGEPORT     CLEAR     92  62  36 S12       30.03F
DENTON         SUNNY     91  62  37 S10       30.02F
WAXAHACHIE     CLEAR     90  66  44 SE9       30.04F
GRANBURY       CLEAR     91  62  37 SE8G21    30.02F
$$

WESTERN NORTH TEXAS

CITY           SKY/WX    TMP DP  RH WIND       PRES   REMARKS
WICHITA FALLS  MOSUNNY   93  64  38 SE10      29.99F
VERNON         CLEAR     94  52  23 SW9       29.99F
BRECKENRIDGE   PTCLDY    94  59  31 SE10      30.01F HAZE
COMANCHE       SUNNY     92  61  34 S5        30.04F
$$

CENTRAL AND SOUTH CENTRAL TEXAS

CITY           SKY/WX    TMP DP  RH WIND       PRES   REMARKS
AUSTIN/BERGSTM PTSUNNY   87  65  47 E9        30.00F
WACO           MOSUNNY   90  66  45 S8        30.02F
HILLSBORO      PTCLDY    89  65  44 SE8       30.03F
TEMPLE         MOSUNNY   90  66  45 SE6       30.03F
KILLEEN-GRAY   SUNNY     89  64  43 VRB7      30.02F
FORT HOOD      MOSUNNY   88  66  47 SE9       30.02F
GEORGETOWN     MOSUNNY   88  66  48 E6        30.03F
LAGO VISTA     MOCLDY    87  64  46 SE5       30.04F
SAN MARCOS     PTSUNNY   90  66  45 E8        30.02F
NEW BRAUNFELS  MOSUNNY   92  66  42 E6        29.99F
RANDOLPH AFB   MOSUNNY   89  66  46 NE7       30.00F
SAN ANTONIO    MOSUNNY   89  66  46 VRB3      30.01F
STINSON        PTSUNNY   92  66  42 SE7       29.98F
PLEASANTON     NOT AVBL
LA GRANGE      SUNNY     85  72  63 E3        29.99F
GIDDINGS       CLEAR     89  68  48 E9        30.04F
$$

EAST TEXAS

CITY           SKY/WX    TMP DP  RH WIND       PRES   REMARKS
PARIS          MOSUNNY   90  63  40 S8        30.05F
CLARKSVILLE    NOT AVBL
TYLER          MOSUNNY   90  64  42 E7        30.05F
LONGVIEW       MOSUNNY   89  65  44 SW5       30.04F
PALESTINE      PTCLDY    90  66  43 SE6       30.05F
NACOGDOCHES    MOSUNNY   91  61  35 S8        30.02F
$$

TEXAS HILL COUNTRY AND EDWARDS PLATEAU

CITY           SKY/WX    TMP DP  RH WIND       PRES   REMARKS
LLANO          PTCLDY    93  63  36 SE9       30.04F
HORSESHOE BAY  FAIR      90  65  43 CALM      30.03F
KERRVILLE      SUNNY     89  66  46 SE5       30.04F
FREDERICKSBRG  SUNNY     89  59  36 E5        30.04F
ROCKSPRINGS    PTCLDY    84  64  51 SE8       30.10F
HONDO          MOSUNNY   88  65  46 CALM      30.02F
UVALDE         PTCLDY    85  67  54 CALM      30.01F
DEL RIO        SUNNY     89  69  51 E8        29.99F
$$

SOUTHEAST TEXAS

CITY           SKY/WX    TMP DP  RH WIND       PRES   REMARKS
COLLEGE STN    MOSUNNY   89  68  49 SE7       30.01F
CALDWELL       PTCLDY    88  66  48 E7        30.05F
CROCKETT       MOCLDY    91  64  40 S6        30.05F
BRENHAM        SUNNY     86  71  62 S5        30.03F
HUNTSVILLE     SUNNY     90  63  40 VRB6      30.02F
CONROE         PTSUNNY   88  65  46 VRB6      30.02F
HOUSTON BUSH   MOSUNNY   88  71  57 SE10G20   30.01F
HOUSTON HOBBY  MOSUNNY   86  71  60 E9        30.01F
PERLAND        SUNNY     86  70  58 E13       30.03S
WHARTON        CLOUDY    86  70  59 E9        30.00F
$$

THE UPPER TEXAS COAST

CITY           SKY/WX    TMP DP  RH WIND       PRES   REMARKS
ORANGE         PTCLDY    87  67  50 CALM      30.04F
PORT ARTHUR    MOSUNNY   87  72  60 SE15      30.02F
GALVESTON      PTSUNNY   83  75  77 E14       30.02F
ANGLETON       MOSUNNY   85  73  67 E13       30.01F
BAY CITY       PTCLDY    86  74  66 E7        30.00F
$$

TEXAS COASTAL BEND, RIO GRANDE PLAINS DEEP SOUTH TEXAS

CITY           SKY/WX    TMP DP  RH WIND       PRES   REMARKS
VICTORIA       PTSUNNY   89  71  55 E7        29.99F
BEEVILLE       FAIR      91  72  54 NE6       29.97F
ROCKPORT       MOSUNNY   84  74  71 E16       29.98F
PORT ARANSAS   PTCLDY    83  74  76 E13G18    29.99S
PORT LAVACA    CLEAR     87  75  68 E10G17    30.00S
CORPUS CHRISTI PTSUNNY   90  73  57 E15       29.97F
KINGSVILLE NAS PTSUNNY   94  76  55 NE21G26   29.95F
COTULLA        MOSUNNY   93  67  42 E6        29.97F
LAREDO         PTSUNNY   93  69  45 VRB6      29.97F
BROWNSVILLE    MOSUNNY   89  76  65 SW10      29.94F
PORT ISABEL    PTSUNNY   91  76  61 E10       29.94F
HEBBRONVILLE   NOT AVBL
MCALLEN        PTSUNNY   93  73  52 SE7       29.94F
WESLACO        MOSUNNY   93  73  52 S5        29.93F
FALFURRIAS     PTCLDY    94  69  43 N7        29.93F
EDINBURG       MOCLDY    95  71  46 E10G17    29.94F
$$



USA.gov is the U.S. government's official web portal to all federal, state and local government web resources and services.